Time,TemperatureF,DewpointF,PressureIn,WindDirection,WindDirectionDegrees,WindSpeedMPH,WindSpeedGustMPH,Humidity,HourlyPrecipIn,Conditions,Clouds,dailyrainin,SoftwareType,DateUTC
2013-03-09 00:00:00,47.9,42.3,30.19,North,0,0.0,0.0,81,0.00,,,0.00,WUHU216HW,2013-03-09 05:00:00,
2013-03-09 00:05:00,47.9,42.3,30.20,North,0,0.0,0.0,81,0.00,,,0.00,WUHU216HW,2013-03-09 05:05:00,
2013-03-09 00:10:00,47.5,42.3,30.19,North,0,0.0,0.0,82,0.00,,,0.00,WUHU216HW,2013-03-09 05:10:00,
2013-03-09 00:15:00,47.5,41.9,30.19,North,0,0.0,0.0,81,0.00,,,0.00,WUHU216HW,2013-03-09 05:15:00,
2013-03-09 00:20:00,47.5,41.9,30.19,North,0,0.0,0.0,81,0.00,,,0.00,WUHU216HW,2013-03-09 05:20:00,
2013-03-09 00:25:00,47.5,41.9,30.19,North,0,0.0,0.0,81,0.00,,,0.00,WUHU216HW,2013-03-09 05:25:00,
2013-03-09 00:30:00,47.2,41.7,30.20,North,0,0.0,0.0,81,0.00,,,0.00,WUHU216HW,2013-03-09 05:30:00,
2013-03-09 00:35:00,47.2,41.7,30.19,North,0,0.0,0.0,81,0.00,,,0.00,WUHU216HW,2013-03-09 05:35:00,
2013-03-09 00:40:00,47.0,41.5,30.20,North,0,0.0,0.0,81,0.00,,,0.00,WUHU216HW,2013-03-09 05:40:00,
2013-03-09 00:45:00,46.8,41.3,30.19,North,0,0.0,0.0,81,0.00,,,0.00,WUHU216HW,2013-03-09 05:45:00,
2013-03-09 00:50:00,46.8,41.3,30.19,North,0,0.0,0.0,81,0.00,,,0.00,WUHU216HW,2013-03-09 05:50:00,
2013-03-09 00:55:00,46.6,41.1,30.19,North,0,0.0,0.0,81,0.00,,,0.00,WUHU216HW,2013-03-09 05:55:00,
2013-03-09 01:00:00,46.4,41.0,30.19,North,0,0.0,0.0,81,0.00,,,0.00,WUHU216HW,2013-03-09 06:00:00,
2013-03-09 01:05:00,46.4,41.0,30.19,North,0,0.0,0.0,81,0.00,,,0.00,WUHU216HW,2013-03-09 06:05:00,
2013-03-09 01:10:00,46.4,41.0,30.19,North,0,0.0,0.0,81,0.00,,,0.00,WUHU216HW,2013-03-09 06:10:00,
2013-03-09 01:15:00,46.3,40.8,30.19,North,0,0.0,0.0,81,0.00,,,0.00,WUHU216HW,2013-03-09 06:15:00,
2013-03-09 01:20:00,46.1,41.0,30.18,North,0,0.0,0.0,82,0.00,,,0.00,WUHU216HW,2013-03-09 06:20:00,
2013-03-09 01:25:00,46.1,41.2,30.18,North,0,0.0,0.0,83,0.00,,,0.00,WUHU216HW,2013-03-09 06:25:00,
2013-03-09 01:30:00,46.1,41.2,30.17,North,0,0.0,0.0,83,0.00,,,0.00,WUHU216HW,2013-03-09 06:30:00,
2013-03-09 01:35:00,46.3,41.4,30.17,North,0,0.0,0.0,83,0.00,,,0.00,WUHU216HW,2013-03-09 06:35:00,
2013-03-09 01:40:00,46.1,41.2,30.17,North,0,0.0,0.0,83,0.00,,,0.00,WUHU216HW,2013-03-09 06:40:00,
2013-03-09 01:45:00,46.3,41.4,30.18,North,0,0.0,0.0,83,0.00,,,0.00,WUHU216HW,2013-03-09 06:45:00,
2013-03-09 01:50:00,46.3,41.4,30.17,North,0,0.0,0.0,83,0.00,,,0.00,WUHU216HW,2013-03-09 06:50:00,
2013-03-09 01:55:00,46.4,41.6,30.17,North,0,0.0,0.0,83,0.00,,,0.00,WUHU216HW,2013-03-09 06:55:00,
2013-03-09 02:00:00,46.4,42.0,30.18,North,0,0.0,0.0,84,0.00,,,0.00,WUHU216HW,2013-03-09 07:00:00,
2013-03-09 02:05:00,46.3,41.8,30.17,North,0,0.0,0.0,84,0.00,,,0.00,WUHU216HW,2013-03-09 07:05:00,
2013-03-09 02:10:00,46.3,42.0,30.17,North,0,0.0,0.0,85,0.00,,,0.00,WUHU216HW,2013-03-09 07:10:00,
2013-03-09 02:15:00,46.3,42.0,30.17,North,0,0.0,0.0,85,0.00,,,0.00,WUHU216HW,2013-03-09 07:15:00,
2013-03-09 02:20:00,46.4,42.2,30.17,North,0,0.0,0.0,85,0.00,,,0.00,WUHU216HW,2013-03-09 07:20:00,
2013-03-09 02:25:00,46.3,42.0,30.17,North,0,0.0,0.0,85,0.00,,,0.00,WUHU216HW,2013-03-09 07:25:00,
2013-03-09 02:30:00,46.3,42.0,30.17,North,0,0.0,0.0,85,0.00,,,0.00,WUHU216HW,2013-03-09 07:30:00,
2013-03-09 02:35:00,46.3,42.0,30.17,North,0,0.0,0.0,85,0.00,,,0.00,WUHU216HW,2013-03-09 07:35:00,
2013-03-09 02:40:00,46.4,42.2,30.17,North,0,0.0,0.0,85,0.00,,,0.00,WUHU216HW,2013-03-09 07:40:00,
2013-03-09 02:45:00,46.3,42.0,30.16,North,0,0.0,0.0,85,0.00,,,0.00,WUHU216HW,2013-03-09 07:45:00,
2013-03-09 02:50:00,46.4,42.0,30.16,North,0,0.0,0.0,84,0.00,,,0.00,WUHU216HW,2013-03-09 07:50:00,
2013-03-09 02:55:00,46.3,41.8,30.16,North,0,0.0,0.0,84,0.00,,,0.00,WUHU216HW,2013-03-09 07:55:00,
2013-03-09 03:00:00,46.1,41.9,30.15,North,0,0.0,0.0,85,0.00,,,0.00,WUHU216HW,2013-03-09 08:00:00,
2013-03-09 03:05:00,45.9,41.7,30.15,North,0,0.0,0.0,85,0.00,,,0.00,WUHU216HW,2013-03-09 08:05:00,
2013-03-09 03:10:00,45.9,41.7,30.15,North,0,0.0,0.0,85,0.00,,,0.00,WUHU216HW,2013-03-09 08:10:00,
2013-03-09 03:15:00,45.7,41.5,30.15,North,0,0.0,0.0,85,0.00,,,0.00,WUHU216HW,2013-03-09 08:15:00,
2013-03-09 03:20:00,45.7,41.5,30.14,North,0,0.0,0.0,85,0.00,,,0.00,WUHU216HW,2013-03-09 08:20:00,
2013-03-09 03:25:00,45.7,41.5,30.15,North,0,0.0,0.0,85,0.00,,,0.00,WUHU216HW,2013-03-09 08:25:00,
2013-03-09 03:30:00,45.7,41.5,30.15,North,0,0.0,0.0,85,0.00,,,0.00,WUHU216HW,2013-03-09 08:30:00,
2013-03-09 03:35:00,45.7,41.5,30.15,North,0,0.0,0.0,85,0.00,,,0.00,WUHU216HW,2013-03-09 08:35:00,
2013-03-09 03:40:00,45.7,41.5,30.14,North,0,0.0,0.0,85,0.00,,,0.00,WUHU216HW,2013-03-09 08:40:00,
2013-03-09 03:45:00,45.7,41.2,30.14,North,0,0.0,0.0,84,0.00,,,0.00,WUHU216HW,2013-03-09 08:45:00,
2013-03-09 03:50:00,45.7,41.2,30.14,North,0,0.0,0.0,84,0.00,,,0.00,WUHU216HW,2013-03-09 08:50:00,
2013-03-09 03:55:00,45.7,41.2,30.14,North,0,0.0,0.0,84,0.00,,,0.00,WUHU216HW,2013-03-09 08:55:00,
2013-03-09 04:00:00,45.5,41.3,30.14,North,0,0.0,0.0,85,0.00,,,0.00,WUHU216HW,2013-03-09 09:00:00,
2013-03-09 04:05:00,45.2,41.0,30.14,North,0,0.0,0.0,85,0.00,,,0.00,WUHU216HW,2013-03-09 09:05:00,
2013-03-09 04:10:00,45.0,40.8,30.14,North,0,0.0,0.0,85,0.00,,,0.00,WUHU216HW,2013-03-09 09:10:00,
2013-03-09 04:15:00,45.0,40.8,30.13,North,0,0.0,0.0,85,0.00,,,0.00,WUHU216HW,2013-03-09 09:15:00,
2013-03-09 04:20:00,45.0,40.8,30.14,North,0,0.0,0.0,85,0.00,,,0.00,WUHU216HW,2013-03-09 09:20:00,
2013-03-09 04:25:00,44.8,40.6,30.14,North,0,0.0,0.0,85,0.00,,,0.00,WUHU216HW,2013-03-09 09:25:00,
2013-03-09 04:30:00,44.6,40.4,30.14,North,0,0.0,0.0,85,0.00,,,0.00,WUHU216HW,2013-03-09 09:30:00,
2013-03-09 04:35:00,44.6,40.4,30.14,North,0,0.0,0.0,85,0.00,,,0.00,WUHU216HW,2013-03-09 09:35:00,
2013-03-09 04:40:00,44.6,40.4,30.14,North,0,0.0,0.0,85,0.00,,,0.00,WUHU216HW,2013-03-09 09:40:00,
2013-03-09 04:45:00,44.3,40.1,30.14,North,0,0.0,0.0,85,0.00,,,0.00,WUHU216HW,2013-03-09 09:45:00,
2013-03-09 04:50:00,44.3,40.1,30.14,North,0,0.0,0.0,85,0.00,,,0.00,WUHU216HW,2013-03-09 09:50:00,
2013-03-09 04:55:00,44.3,40.1,30.14,North,0,0.0,0.0,85,0.00,,,0.00,WUHU216HW,2013-03-09 09:55:00,
2013-03-09 05:00:00,44.1,39.9,30.14,North,0,0.0,0.0,85,0.00,,,0.00,WUHU216HW,2013-03-09 10:00:00,
2013-03-09 05:05:00,43.9,39.7,30.15,North,0,0.0,0.0,85,0.00,,,0.00,WUHU216HW,2013-03-09 10:05:00,
2013-03-09 05:10:00,43.7,39.5,30.15,North,0,0.0,0.0,85,0.00,,,0.00,WUHU216HW,2013-03-09 10:10:00,
2013-03-09 05:15:00,43.7,39.5,30.15,North,0,0.0,0.0,85,0.00,,,0.00,WUHU216HW,2013-03-09 10:15:00,
2013-03-09 05:20:00,43.7,39.5,30.15,North,0,0.0,0.0,85,0.00,,,0.00,WUHU216HW,2013-03-09 10:20:00,
2013-03-09 05:25:00,43.6,39.6,30.16,North,0,0.0,0.0,86,0.00,,,0.00,WUHU216HW,2013-03-09 10:25:00,
2013-03-09 05:30:00,43.6,39.6,30.16,North,0,0.0,0.0,86,0.00,,,0.00,WUHU216HW,2013-03-09 10:30:00,
2013-03-09 05:35:00,43.7,39.5,30.16,North,0,0.0,0.0,85,0.00,,,0.00,WUHU216HW,2013-03-09 10:35:00,
2013-03-09 05:40:00,43.7,39.8,30.16,North,0,0.0,0.0,86,0.00,,,0.00,WUHU216HW,2013-03-09 10:40:00,
2013-03-09 05:45:00,43.6,39.6,30.17,North,0,0.0,0.0,86,0.00,,,0.00,WUHU216HW,2013-03-09 10:45:00,
2013-03-09 05:50:00,43.6,39.6,30.16,North,0,0.0,0.0,86,0.00,,,0.00,WUHU216HW,2013-03-09 10:50:00,
2013-03-09 05:55:00,43.7,39.8,30.16,North,0,0.0,0.0,86,0.00,,,0.00,WUHU216HW,2013-03-09 10:55:00,
2013-03-09 06:00:00,43.6,39.3,30.16,North,0,0.0,0.0,85,0.00,,,0.00,WUHU216HW,2013-03-09 11:00:00,
2013-03-09 06:05:00,43.6,39.3,30.17,North,0,0.0,0.0,85,0.00,,,0.00,WUHU216HW,2013-03-09 11:05:00,
2013-03-09 06:10:00,43.4,39.2,30.17,North,0,0.0,0.0,85,0.00,,,0.00,WUHU216HW,2013-03-09 11:10:00,
2013-03-09 06:15:00,43.4,39.2,30.17,North,0,0.0,0.0,85,0.00,,,0.00,WUHU216HW,2013-03-09 11:15:00,
2013-03-09 06:20:00,43.2,39.0,30.17,North,0,0.0,0.0,85,0.00,,,0.00,WUHU216HW,2013-03-09 11:20:00,
2013-03-09 06:25:00,43.2,39.0,30.17,North,0,0.0,0.0,85,0.00,,,0.00,WUHU216HW,2013-03-09 11:25:00,
2013-03-09 06:30:00,43.2,39.2,30.17,North,0,0.0,0.0,86,0.00,,,0.00,WUHU216HW,2013-03-09 11:30:00,
2013-03-09 06:35:00,43.2,39.2,30.17,North,0,0.0,0.0,86,0.00,,,0.00,WUHU216HW,2013-03-09 11:35:00,
2013-03-09 06:40:00,43.2,39.0,30.18,North,0,0.0,0.0,85,0.00,,,0.00,WUHU216HW,2013-03-09 11:40:00,
2013-03-09 06:45:00,43.2,39.0,30.17,North,0,0.0,0.0,85,0.00,,,0.00,WUHU216HW,2013-03-09 11:45:00,
2013-03-09 06:50:00,43.2,39.2,30.17,North,0,0.0,0.0,86,0.00,,,0.00,WUHU216HW,2013-03-09 11:50:00,
2013-03-09 06:55:00,43.2,39.0,30.17,North,0,0.0,0.0,85,0.00,,,0.00,WUHU216HW,2013-03-09 11:55:00,
2013-03-09 07:00:00,43.2,39.0,30.17,North,0,0.0,0.0,85,0.00,,,0.00,WUHU216HW,2013-03-09 12:00:00,
2013-03-09 07:05:00,43.2,39.0,30.18,North,0,0.0,0.0,85,0.00,,,0.00,WUHU216HW,2013-03-09 12:05:00,
2013-03-09 07:10:00,43.4,39.4,30.18,North,0,0.0,0.0,86,0.00,,,0.00,WUHU216HW,2013-03-09 12:10:00,
2013-03-09 07:15:00,43.6,39.6,30.18,North,0,0.0,0.0,86,0.00,,,0.00,WUHU216HW,2013-03-09 12:15:00,
2013-03-09 07:20:00,43.6,39.6,30.18,North,0,0.0,0.0,86,0.00,,,0.00,WUHU216HW,2013-03-09 12:20:00,
2013-03-09 07:25:00,44.1,40.1,30.18,North,0,0.0,0.0,86,0.00,,,0.00,WUHU216HW,2013-03-09 12:25:00,
2013-03-09 07:30:00,44.3,40.3,30.18,North,0,0.0,0.0,86,0.00,,,0.00,WUHU216HW,2013-03-09 12:30:00,
2013-03-09 07:35:00,44.6,40.7,30.19,North,0,0.0,0.0,86,0.00,,,0.00,WUHU216HW,2013-03-09 12:35:00,
2013-03-09 07:40:00,45.0,41.0,30.18,North,0,0.0,0.0,86,0.00,,,0.00,WUHU216HW,2013-03-09 12:40:00,
2013-03-09 07:45:00,45.5,41.6,30.19,North,0,0.0,0.0,86,0.00,,,0.00,WUHU216HW,2013-03-09 12:45:00,
2013-03-09 07:50:00,45.9,41.9,30.19,North,0,0.0,0.0,86,0.00,,,0.00,WUHU216HW,2013-03-09 12:50:00,
2013-03-09 07:55:00,46.4,42.5,30.19,North,0,0.0,0.0,86,0.00,,,0.00,WUHU216HW,2013-03-09 12:55:00,
2013-03-09 08:00:00,47.2,43.6,30.20,North,0,0.0,0.0,87,0.00,,,0.00,WUHU216HW,2013-03-09 13:00:00,
2013-03-09 08:05:00,48.1,44.4,30.19,North,0,0.0,0.0,87,0.00,,,0.00,WUHU216HW,2013-03-09 13:05:00,
2013-03-09 08:10:00,49.1,45.7,30.20,North,0,0.0,0.0,88,0.00,,,0.00,WUHU216HW,2013-03-09 13:10:00,
2013-03-09 08:15:00,50.4,46.3,30.20,North,0,0.0,0.0,86,0.00,,,0.00,WUHU216HW,2013-03-09 13:15:00,
2013-03-09 08:20:00,51.5,46.4,30.20,North,0,0.0,0.0,83,0.00,,,0.00,WUHU216HW,2013-03-09 13:20:00,
2013-03-09 08:25:00,52.6,46.9,30.20,North,0,0.0,0.0,81,0.00,,,0.00,WUHU216HW,2013-03-09 13:25:00,
2013-03-09 08:30:00,53.3,47.3,30.20,North,0,0.0,0.0,80,0.00,,,0.00,WUHU216HW,2013-03-09 13:30:00,
2013-03-09 08:35:00,53.8,47.5,30.20,North,0,0.0,0.0,79,0.00,,,0.00,WUHU216HW,2013-03-09 13:35:00,
2013-03-09 08:40:00,54.4,47.6,30.21,North,0,0.0,0.0,78,0.00,,,0.00,WUHU216HW,2013-03-09 13:40:00,
2013-03-09 08:45:00,55.1,48.0,30.21,North,0,0.0,0.0,77,0.00,,,0.00,WUHU216HW,2013-03-09 13:45:00,
2013-03-09 08:50:00,55.8,48.0,30.22,North,0,0.0,0.0,75,0.00,,,0.00,WUHU216HW,2013-03-09 13:50:00,
2013-03-09 08:55:00,56.2,48.0,30.22,North,0,0.0,0.0,74,0.00,,,0.00,WUHU216HW,2013-03-09 13:55:00,
2013-03-09 09:00:00,56.7,48.1,30.22,North,0,0.0,0.0,73,0.00,,,0.00,WUHU216HW,2013-03-09 14:00:00,
2013-03-09 09:05:00,57.2,48.6,30.22,North,0,0.0,0.0,73,0.00,,,0.00,WUHU216HW,2013-03-09 14:05:00,
2013-03-09 09:10:00,57.8,49.1,30.22,North,0,0.0,0.0,73,0.00,,,0.00,WUHU216HW,2013-03-09 14:10:00,
2013-03-09 09:15:00,58.5,49.5,30.22,North,0,0.0,0.0,72,0.00,,,0.00,WUHU216HW,2013-03-09 14:15:00,
2013-03-09 09:20:00,58.9,48.7,30.22,North,0,0.0,0.0,69,0.00,,,0.00,WUHU216HW,2013-03-09 14:20:00,
2013-03-09 09:25:00,59.4,50.0,30.22,North,0,0.0,0.0,71,0.00,,,0.00,WUHU216HW,2013-03-09 14:25:00,
2013-03-09 09:30:00,60.1,50.8,30.22,North,0,0.0,0.0,71,0.00,,,0.00,WUHU216HW,2013-03-09 14:30:00,
2013-03-09 09:35:00,60.7,50.5,30.22,North,0,0.0,0.0,69,0.00,,,0.00,WUHU216HW,2013-03-09 14:35:00,
2013-03-09 09:40:00,61.2,51.0,30.22,North,0,0.0,0.0,69,0.00,,,0.00,WUHU216HW,2013-03-09 14:40:00,
2013-03-09 09:45:00,61.6,51.4,30.22,North,0,0.0,0.0,69,0.00,,,0.00,WUHU216HW,2013-03-09 14:45:00,
2013-03-09 09:50:00,62.3,51.6,30.22,North,0,0.0,0.0,68,0.00,,,0.00,WUHU216HW,2013-03-09 14:50:00,
2013-03-09 09:55:00,62.6,51.1,30.22,North,0,0.0,0.0,66,0.00,,,0.00,WUHU216HW,2013-03-09 14:55:00,
2013-03-09 10:00:00,63.0,51.4,30.22,North,0,0.0,0.0,66,0.00,,,0.00,WUHU216HW,2013-03-09 15:00:00,
2013-03-09 10:05:00,63.7,51.3,30.22,North,0,0.0,0.0,64,0.00,,,0.00,WUHU216HW,2013-03-09 15:05:00,
2013-03-09 10:10:00,64.4,51.9,30.22,North,0,0.0,0.0,64,0.00,,,0.00,WUHU216HW,2013-03-09 15:10:00,
2013-03-09 10:15:00,65.2,51.8,30.22,North,0,0.0,0.0,62,0.00,,,0.00,WUHU216HW,2013-03-09 15:15:00,
2013-03-09 10:20:00,65.7,51.0,30.23,North,0,0.0,0.0,59,0.00,,,0.00,WUHU216HW,2013-03-09 15:20:00,
2013-03-09 10:25:00,65.9,50.7,30.23,North,0,0.0,0.0,58,0.00,,,0.00,WUHU216HW,2013-03-09 15:25:00,
2013-03-09 10:30:00,66.1,51.4,30.22,North,0,0.0,0.0,59,0.00,,,0.00,WUHU216HW,2013-03-09 15:30:00,
2013-03-09 10:35:00,66.4,50.8,30.23,North,0,0.0,0.0,57,0.00,,,0.00,WUHU216HW,2013-03-09 15:35:00,
2013-03-09 10:40:00,66.6,50.9,30.23,North,0,0.0,0.0,57,0.00,,,0.00,WUHU216HW,2013-03-09 15:40:00,
2013-03-09 10:45:00,67.1,50.9,30.23,North,0,0.0,0.0,56,0.00,,,0.00,WUHU216HW,2013-03-09 15:45:00,
2013-03-09 10:50:00,67.3,51.0,30.23,North,0,0.0,0.0,56,0.00,,,0.00,WUHU216HW,2013-03-09 15:50:00,
2013-03-09 10:55:00,67.5,50.8,30.23,North,0,0.0,0.0,55,0.00,,,0.00,WUHU216HW,2013-03-09 15:55:00,
2013-03-09 11:00:00,67.5,51.2,30.23,North,0,0.0,0.0,56,0.00,,,0.00,WUHU216HW,2013-03-09 16:00:00,
2013-03-09 11:05:00,67.9,51.0,30.22,North,0,0.0,0.0,55,0.00,,,0.00,WUHU216HW,2013-03-09 16:05:00,
2013-03-09 11:10:00,68.2,51.4,30.22,North,0,0.0,0.0,55,0.00,,,0.00,WUHU216HW,2013-03-09 16:10:00,
2013-03-09 11:15:00,68.4,51.0,30.22,North,0,0.0,0.0,54,0.00,,,0.00,WUHU216HW,2013-03-09 16:15:00,
2013-03-09 11:20:00,68.4,51.6,30.23,North,0,0.0,0.0,55,0.00,,,0.00,WUHU216HW,2013-03-09 16:20:00,
2013-03-09 11:25:00,68.8,51.0,30.23,North,0,0.0,0.0,53,0.00,,,0.00,WUHU216HW,2013-03-09 16:25:00,
2013-03-09 11:30:00,68.8,51.0,30.23,North,0,0.0,0.0,53,0.00,,,0.00,WUHU216HW,2013-03-09 16:30:00,
2013-03-09 11:35:00,69.3,51.9,30.23,North,0,0.0,0.0,54,0.00,,,0.00,WUHU216HW,2013-03-09 16:35:00,
2013-03-09 11:40:00,69.5,52.1,30.23,North,0,0.0,0.0,54,0.00,,,0.00,WUHU216HW,2013-03-09 16:40:00,
2013-03-09 11:45:00,69.7,52.3,30.23,North,0,0.0,0.0,54,0.00,,,0.00,WUHU216HW,2013-03-09 16:45:00,
2013-03-09 11:50:00,69.8,51.4,30.23,North,0,0.0,0.0,52,0.00,,,0.00,WUHU216HW,2013-03-09 16:50:00,
2013-03-09 11:55:00,69.7,51.2,30.23,North,0,0.0,0.0,52,0.00,,,0.00,WUHU216HW,2013-03-09 16:55:00,
2013-03-09 12:00:00,69.8,51.4,30.23,North,0,0.0,0.0,52,0.00,,,0.00,WUHU216HW,2013-03-09 17:00:00,
2013-03-09 12:05:00,70.2,52.2,30.22,North,0,0.0,0.0,53,0.00,,,0.00,WUHU216HW,2013-03-09 17:05:00,
2013-03-09 12:10:00,70.6,52.6,30.22,North,0,0.0,0.0,53,0.00,,,0.00,WUHU216HW,2013-03-09 17:10:00,
2013-03-09 12:15:00,70.6,52.0,30.22,North,0,0.0,0.0,52,0.00,,,0.00,WUHU216HW,2013-03-09 17:15:00,
2013-03-09 12:20:00,70.2,51.8,30.21,North,0,0.0,0.0,52,0.00,,,0.00,WUHU216HW,2013-03-09 17:20:00,
2013-03-09 12:25:00,70.2,51.8,30.21,North,0,0.0,0.0,52,0.00,,,0.00,WUHU216HW,2013-03-09 17:25:00,
2013-03-09 12:30:00,70.2,51.8,30.21,North,0,0.0,0.0,52,0.00,,,0.00,WUHU216HW,2013-03-09 17:30:00,
2013-03-09 12:35:00,70.0,51.0,30.21,North,0,0.0,0.0,51,0.00,,,0.00,WUHU216HW,2013-03-09 17:35:00,
2013-03-09 12:40:00,70.0,51.6,30.21,North,0,0.0,0.0,52,0.00,,,0.00,WUHU216HW,2013-03-09 17:40:00,
2013-03-09 12:45:00,69.8,51.9,30.21,North,0,0.0,0.0,53,0.00,,,0.00,WUHU216HW,2013-03-09 17:45:00,
2013-03-09 12:50:00,69.8,51.9,30.21,North,0,0.0,0.0,53,0.00,,,0.00,WUHU216HW,2013-03-09 17:50:00,
2013-03-09 12:55:00,69.8,51.4,30.20,North,0,0.0,0.0,52,0.00,,,0.00,WUHU216HW,2013-03-09 17:55:00,
2013-03-09 13:00:00,69.5,51.1,30.20,North,0,0.0,0.0,52,0.00,,,0.00,WUHU216HW,2013-03-09 18:00:00,
2013-03-09 13:05:00,69.7,51.2,30.20,North,0,0.0,0.0,52,0.00,,,0.00,WUHU216HW,2013-03-09 18:05:00,
2013-03-09 13:10:00,69.8,51.4,30.20,North,0,0.0,0.0,52,0.00,,,0.00,WUHU216HW,2013-03-09 18:10:00,
2013-03-09 13:15:00,69.8,51.0,30.20,North,0,0.0,0.0,51,0.00,,,0.00,WUHU216HW,2013-03-09 18:15:00,
2013-03-09 13:20:00,70.2,52.2,30.19,North,0,0.0,0.0,53,0.00,,,0.00,WUHU216HW,2013-03-09 18:20:00,
2013-03-09 13:25:00,70.7,52.2,30.19,North,0,0.0,0.0,52,0.00,,,0.00,WUHU216HW,2013-03-09 18:25:00,
2013-03-09 13:30:00,70.9,52.4,30.19,North,0,0.0,0.0,52,0.00,,,0.00,WUHU216HW,2013-03-09 18:30:00,
2013-03-09 13:35:00,71.3,52.8,30.19,North,0,0.0,0.0,52,0.00,,,0.00,WUHU216HW,2013-03-09 18:35:00,
2013-03-09 13:40:00,71.6,52.6,30.18,North,0,0.0,0.0,51,0.00,,,0.00,WUHU216HW,2013-03-09 18:40:00,
2013-03-09 13:45:00,71.8,53.2,30.18,North,0,0.0,0.0,52,0.00,,,0.00,WUHU216HW,2013-03-09 18:45:00,
2013-03-09 13:50:00,72.4,53.2,30.18,North,0,0.0,0.0,51,0.00,,,0.00,WUHU216HW,2013-03-09 18:50:00,
2013-03-09 13:55:00,72.2,52.5,30.18,North,0,0.0,0.0,50,0.00,,,0.00,WUHU216HW,2013-03-09 18:55:00,
2013-03-09 14:00:00,72.0,52.4,30.18,North,0,0.0,0.0,50,0.00,,,0.00,WUHU216HW,2013-03-09 19:00:00,
2013-03-09 14:05:00,71.8,52.7,30.18,North,0,0.0,0.0,51,0.00,,,0.00,WUHU216HW,2013-03-09 19:05:00,
2013-03-09 14:10:00,71.6,52.0,30.17,North,0,0.0,0.0,50,0.00,,,0.00,WUHU216HW,2013-03-09 19:10:00,
2013-03-09 14:15:00,71.3,51.7,30.18,North,0,0.0,0.0,50,0.00,,,0.00,WUHU216HW,2013-03-09 19:15:00,
2013-03-09 14:20:00,70.7,51.2,30.17,North,0,0.0,0.0,50,0.00,,,0.00,WUHU216HW,2013-03-09 19:20:00,
2013-03-09 14:25:00,70.6,51.6,30.18,North,0,0.0,0.0,51,0.00,,,0.00,WUHU216HW,2013-03-09 19:25:00,
2013-03-09 14:30:00,70.2,51.8,30.17,North,0,0.0,0.0,52,0.00,,,0.00,WUHU216HW,2013-03-09 19:30:00,
2013-03-09 14:35:00,70.2,51.8,30.17,North,0,0.0,0.0,52,0.00,,,0.00,WUHU216HW,2013-03-09 19:35:00,
2013-03-09 14:40:00,69.8,51.0,30.17,North,0,0.0,0.0,51,0.00,,,0.00,WUHU216HW,2013-03-09 19:40:00,
2013-03-09 14:45:00,69.7,50.8,30.17,North,0,0.0,0.0,51,0.00,,,0.00,WUHU216HW,2013-03-09 19:45:00,
2013-03-09 14:50:00,69.3,51.0,30.18,North,0,0.0,0.0,52,0.00,,,0.00,WUHU216HW,2013-03-09 19:50:00,
2013-03-09 14:55:00,69.1,51.2,30.17,North,0,0.0,0.0,53,0.00,,,0.00,WUHU216HW,2013-03-09 19:55:00,
2013-03-09 15:00:00,69.1,51.2,30.17,North,0,0.0,0.0,53,0.00,,,0.00,WUHU216HW,2013-03-09 20:00:00,
2013-03-09 15:05:00,69.3,51.4,30.17,North,0,0.0,0.0,53,0.00,,,0.00,WUHU216HW,2013-03-09 20:05:00,
2013-03-09 15:10:00,69.5,51.1,30.17,North,0,0.0,0.0,52,0.00,,,0.00,WUHU216HW,2013-03-09 20:10:00,
2013-03-09 15:15:00,69.1,51.2,30.18,North,0,0.0,0.0,53,0.00,,,0.00,WUHU216HW,2013-03-09 20:15:00,
2013-03-09 15:20:00,68.9,51.1,30.18,North,0,0.0,0.0,53,0.00,,,0.00,WUHU216HW,2013-03-09 20:20:00,
2013-03-09 15:25:00,68.8,51.0,30.18,North,0,0.0,0.0,53,0.00,,,0.00,WUHU216HW,2013-03-09 20:25:00,
2013-03-09 15:30:00,68.8,51.4,30.18,North,0,0.0,0.0,54,0.00,,,0.00,WUHU216HW,2013-03-09 20:30:00,
2013-03-09 15:35:00,68.8,51.4,30.18,North,0,0.0,0.0,54,0.00,,,0.00,WUHU216HW,2013-03-09 20:35:00,
2013-03-09 15:40:00,68.8,51.9,30.18,North,0,0.0,0.0,55,0.00,,,0.00,WUHU216HW,2013-03-09 20:40:00,
2013-03-09 15:45:00,68.9,51.6,30.18,North,0,0.0,0.0,54,0.00,,,0.00,WUHU216HW,2013-03-09 20:45:00,
2013-03-09 15:50:00,69.1,51.8,30.18,North,0,0.0,0.0,54,0.00,,,0.00,WUHU216HW,2013-03-09 20:50:00,
2013-03-09 15:55:00,69.3,51.9,30.18,North,0,0.0,0.0,54,0.00,,,0.00,WUHU216HW,2013-03-09 20:55:00,
2013-03-09 16:00:00,69.1,51.2,30.18,North,0,0.0,0.0,53,0.00,,,0.00,WUHU216HW,2013-03-09 21:00:00,
2013-03-09 16:05:00,68.9,51.6,30.18,North,0,0.0,0.0,54,0.00,,,0.00,WUHU216HW,2013-03-09 21:05:00,
2013-03-09 16:10:00,68.8,51.4,30.18,North,0,0.0,0.0,54,0.00,,,0.00,WUHU216HW,2013-03-09 21:10:00,
2013-03-09 16:15:00,68.2,50.9,30.18,North,0,0.0,0.0,54,0.00,,,0.00,WUHU216HW,2013-03-09 21:15:00,
2013-03-09 16:20:00,68.0,51.2,30.18,North,0,0.0,0.0,55,0.00,,,0.00,WUHU216HW,2013-03-09 21:20:00,
2013-03-09 16:25:00,67.7,50.9,30.18,North,0,0.0,0.0,55,0.00,,,0.00,WUHU216HW,2013-03-09 21:25:00,
2013-03-09 16:30:00,67.3,51.0,30.18,North,0,0.0,0.0,56,0.00,,,0.00,WUHU216HW,2013-03-09 21:30:00,
2013-03-09 16:35:00,67.1,51.4,30.18,North,0,0.0,0.0,57,0.00,,,0.00,WUHU216HW,2013-03-09 21:35:00,
2013-03-09 16:40:00,67.0,51.2,30.18,North,0,0.0,0.0,57,0.00,,,0.00,WUHU216HW,2013-03-09 21:40:00,
2013-03-09 16:45:00,66.6,50.9,30.18,North,0,0.0,0.0,57,0.00,,,0.00,WUHU216HW,2013-03-09 21:45:00,
2013-03-09 16:50:00,66.4,51.2,30.18,North,0,0.0,0.0,58,0.00,,,0.00,WUHU216HW,2013-03-09 21:50:00,
2013-03-09 16:55:00,66.2,51.0,30.18,North,0,0.0,0.0,58,0.00,,,0.00,WUHU216HW,2013-03-09 21:55:00,
2013-03-09 17:00:00,66.2,51.0,30.18,North,0,0.0,0.0,58,0.00,,,0.00,WUHU216HW,2013-03-09 22:00:00,
2013-03-09 17:05:00,65.9,50.7,30.19,North,0,0.0,0.0,58,0.00,,,0.00,WUHU216HW,2013-03-09 22:05:00,
2013-03-09 17:10:00,65.9,51.2,30.19,North,0,0.0,0.0,59,0.00,,,0.00,WUHU216HW,2013-03-09 22:10:00,
2013-03-09 17:15:00,65.9,51.2,30.19,North,0,0.0,0.0,59,0.00,,,0.00,WUHU216HW,2013-03-09 22:15:00,
2013-03-09 17:20:00,65.5,50.9,30.19,North,0,0.0,0.0,59,0.00,,,0.00,WUHU216HW,2013-03-09 22:20:00,
2013-03-09 17:25:00,65.5,51.3,30.19,North,0,0.0,0.0,60,0.00,,,0.00,WUHU216HW,2013-03-09 22:25:00,
2013-03-09 17:30:00,65.2,51.4,30.18,North,0,0.0,0.0,61,0.00,,,0.00,WUHU216HW,2013-03-09 22:30:00,
2013-03-09 17:35:00,64.8,51.5,30.18,North,0,0.0,0.0,62,0.00,,,0.00,WUHU216HW,2013-03-09 22:35:00,
2013-03-09 17:40:00,64.4,51.1,30.19,North,0,0.0,0.0,62,0.00,,,0.00,WUHU216HW,2013-03-09 22:40:00,
2013-03-09 17:45:00,64.3,51.4,30.19,North,0,0.0,0.0,63,0.00,,,0.00,WUHU216HW,2013-03-09 22:45:00,
2013-03-09 17:50:00,63.9,50.6,30.19,North,0,0.0,0.0,62,0.00,,,0.00,WUHU216HW,2013-03-09 22:50:00,
2013-03-09 17:55:00,63.9,51.0,30.19,North,0,0.0,0.0,63,0.00,,,0.00,WUHU216HW,2013-03-09 22:55:00,
2013-03-09 18:00:00,63.7,50.9,30.19,North,0,0.0,0.0,63,0.00,,,0.00,WUHU216HW,2013-03-09 23:00:00,
2013-03-09 18:05:00,63.4,50.5,30.19,North,0,0.0,0.0,63,0.00,,,0.00,WUHU216HW,2013-03-09 23:05:00,
2013-03-09 18:10:00,63.2,50.3,30.20,North,0,0.0,0.0,63,0.00,,,0.00,WUHU216HW,2013-03-09 23:10:00,
2013-03-09 18:15:00,63.0,50.6,30.20,North,0,0.0,0.0,64,0.00,,,0.00,WUHU216HW,2013-03-09 23:15:00,
2013-03-09 18:20:00,62.6,50.7,30.20,North,0,0.0,0.0,65,0.00,,,0.00,WUHU216HW,2013-03-09 23:20:00,
2013-03-09 18:25:00,62.3,50.3,30.20,North,0,0.0,0.0,65,0.00,,,0.00,WUHU216HW,2013-03-09 23:25:00,
2013-03-09 18:30:00,62.1,50.2,30.20,North,0,0.0,0.0,65,0.00,,,0.00,WUHU216HW,2013-03-09 23:30:00,
2013-03-09 18:35:00,61.9,50.1,30.21,North,0,0.0,0.0,65,0.00,,,0.00,WUHU216HW,2013-03-09 23:35:00,
2013-03-09 18:40:00,61.6,49.7,30.21,North,0,0.0,0.0,65,0.00,,,0.00,WUHU216HW,2013-03-09 23:40:00,
2013-03-09 18:45:00,61.6,49.7,30.20,North,0,0.0,0.0,65,0.00,,,0.00,WUHU216HW,2013-03-09 23:45:00,
2013-03-09 18:50:00,61.4,50.0,30.20,North,0,0.0,0.0,66,0.00,,,0.00,WUHU216HW,2013-03-09 23:50:00,
2013-03-09 18:55:00,61.0,49.2,30.20,North,0,0.0,0.0,65,0.00,,,0.00,WUHU216HW,2013-03-09 23:55:00,
2013-03-09 19:00:00,60.8,49.1,30.20,North,0,0.0,0.0,65,0.00,,,0.00,WUHU216HW,2013-03-10 00:00:00,
2013-03-09 19:05:00,60.7,48.9,30.20,North,0,0.0,0.0,65,0.00,,,0.00,WUHU216HW,2013-03-10 00:05:00,
2013-03-09 19:10:00,60.3,49.0,30.20,North,0,0.0,0.0,66,0.00,,,0.00,WUHU216HW,2013-03-10 00:10:00,
2013-03-09 19:15:00,60.1,48.8,30.20,North,0,0.0,0.0,66,0.00,,,0.00,WUHU216HW,2013-03-10 00:15:00,
2013-03-09 19:20:00,59.8,48.8,30.20,North,0,0.0,0.0,67,0.00,,,0.00,WUHU216HW,2013-03-10 00:20:00,
2013-03-09 19:25:00,59.4,48.4,30.20,North,0,0.0,0.0,67,0.00,,,0.00,WUHU216HW,2013-03-10 00:25:00,
2013-03-09 19:30:00,59.4,48.4,30.20,North,0,0.0,0.0,67,0.00,,,0.00,WUHU216HW,2013-03-10 00:30:00,
2013-03-09 19:35:00,59.0,48.5,30.20,North,0,0.0,0.0,68,0.00,,,0.00,WUHU216HW,2013-03-10 00:35:00,
2013-03-09 19:40:00,58.7,48.5,30.19,North,0,0.0,0.0,69,0.00,,,0.00,WUHU216HW,2013-03-10 00:40:00,
2013-03-09 19:45:00,58.5,48.3,30.19,North,0,0.0,0.0,69,0.00,,,0.00,WUHU216HW,2013-03-10 00:45:00,
2013-03-09 19:50:00,58.1,48.0,30.20,North,0,0.0,0.0,69,0.00,,,0.00,WUHU216HW,2013-03-10 00:50:00,
2013-03-09 19:55:00,57.8,48.1,30.20,North,0,0.0,0.0,70,0.00,,,0.00,WUHU216HW,2013-03-10 00:55:00,
2013-03-09 20:00:00,57.6,48.2,30.20,North,0,0.0,0.0,71,0.00,,,0.00,WUHU216HW,2013-03-10 01:00:00,
2013-03-09 20:05:00,57.2,48.2,30.20,North,0,0.0,0.0,72,0.00,,,0.00,WUHU216HW,2013-03-10 01:05:00,
2013-03-09 20:10:00,57.2,48.2,30.21,North,0,0.0,0.0,72,0.00,,,0.00,WUHU216HW,2013-03-10 01:10:00,
2013-03-09 20:15:00,57.1,48.1,30.21,North,0,0.0,0.0,72,0.00,,,0.00,WUHU216HW,2013-03-10 01:15:00,
2013-03-09 20:20:00,56.9,48.2,30.21,North,0,0.0,0.0,73,0.00,,,0.00,WUHU216HW,2013-03-10 01:20:00,
2013-03-09 20:25:00,56.7,48.1,30.20,North,0,0.0,0.0,73,0.00,,,0.00,WUHU216HW,2013-03-10 01:25:00,
2013-03-09 20:30:00,56.7,48.4,30.20,North,0,0.0,0.0,74,0.00,,,0.00,WUHU216HW,2013-03-10 01:30:00,
2013-03-09 20:35:00,56.5,48.0,30.20,North,0,0.0,0.0,73,0.00,,,0.00,WUHU216HW,2013-03-10 01:35:00,
2013-03-09 20:40:00,56.5,48.2,30.20,North,0,0.0,0.0,74,0.00,,,0.00,WUHU216HW,2013-03-10 01:40:00,
2013-03-09 20:45:00,56.3,48.2,30.21,North,0,0.0,0.0,74,0.00,,,0.00,WUHU216HW,2013-03-10 01:45:00,
2013-03-09 20:50:00,56.2,48.6,30.21,North,0,0.0,0.0,76,0.00,,,0.00,WUHU216HW,2013-03-10 01:50:00,
2013-03-09 20:55:00,56.2,48.3,30.21,North,0,0.0,0.0,75,0.00,,,0.00,WUHU216HW,2013-03-10 01:55:00,
2013-03-09 21:00:00,56.2,48.3,30.20,North,0,0.0,0.0,75,0.00,,,0.00,WUHU216HW,2013-03-10 02:00:00,
2013-03-09 21:05:00,56.2,48.3,30.20,North,0,0.0,0.0,75,0.00,,,0.00,WUHU216HW,2013-03-10 02:05:00,
2013-03-09 21:10:00,56.2,48.3,30.20,North,0,0.0,0.0,75,0.00,,,0.00,WUHU216HW,2013-03-10 02:10:00,
2013-03-09 21:16:00,56.0,48.2,30.21,North,0,0.0,0.0,75,0.00,,,0.00,WUHU216HW,2013-03-10 02:16:00,
2013-03-09 21:21:00,55.8,48.0,30.20,North,0,0.0,0.0,75,0.00,,,0.00,WUHU216HW,2013-03-10 02:21:00,
2013-03-09 21:26:00,55.6,48.2,30.20,North,0,0.0,0.0,76,0.00,,,0.00,WUHU216HW,2013-03-10 02:26:00,
2013-03-09 21:31:00,55.4,48.0,30.20,North,0,0.0,0.0,76,0.00,,,0.00,WUHU216HW,2013-03-10 02:31:00,
2013-03-09 21:36:00,55.1,47.6,30.20,North,0,0.0,0.0,76,0.00,,,0.00,WUHU216HW,2013-03-10 02:36:00,
2013-03-09 21:41:00,54.9,47.4,30.20,North,0,0.0,0.0,76,0.00,,,0.00,WUHU216HW,2013-03-10 02:41:00,
2013-03-09 21:46:00,54.7,47.6,30.20,North,0,0.0,0.0,77,0.00,,,0.00,WUHU216HW,2013-03-10 02:46:00,
2013-03-09 21:51:00,54.4,47.0,30.20,North,0,0.0,0.0,76,0.00,,,0.00,WUHU216HW,2013-03-10 02:51:00,
2013-03-09 21:56:00,54.4,47.0,30.19,North,0,0.0,0.0,76,0.00,,,0.00,WUHU216HW,2013-03-10 02:56:00,
2013-03-09 22:01:00,54.2,46.8,30.19,North,0,0.0,0.0,76,0.00,,,0.00,WUHU216HW,2013-03-10 03:01:00,
2013-03-09 22:06:00,54.2,46.8,30.19,North,0,0.0,0.0,76,0.00,,,0.00,WUHU216HW,2013-03-10 03:06:00,
2013-03-09 22:11:00,54.0,46.6,30.19,North,0,0.0,0.0,76,0.00,,,0.00,WUHU216HW,2013-03-10 03:11:00,
2013-03-09 22:16:00,53.6,47.0,30.20,North,0,0.0,0.0,78,0.00,,,0.00,WUHU216HW,2013-03-10 03:16:00,
2013-03-09 22:21:00,53.3,46.6,30.20,North,0,0.0,0.0,78,0.00,,,0.00,WUHU216HW,2013-03-10 03:21:00,
2013-03-09 22:26:00,53.1,46.4,30.20,North,0,0.0,0.0,78,0.00,,,0.00,WUHU216HW,2013-03-10 03:26:00,
2013-03-09 22:31:00,52.9,46.3,30.20,North,0,0.0,0.0,78,0.00,,,0.00,WUHU216HW,2013-03-10 03:31:00,
2013-03-09 22:36:00,52.7,46.4,30.19,North,0,0.0,0.0,79,0.00,,,0.00,WUHU216HW,2013-03-10 03:36:00,
2013-03-09 22:41:00,52.6,46.3,30.20,North,0,0.0,0.0,79,0.00,,,0.00,WUHU216HW,2013-03-10 03:41:00,
2013-03-09 22:46:00,52.2,46.3,30.20,North,0,0.0,0.0,80,0.00,,,0.00,WUHU216HW,2013-03-10 03:46:00,
2013-03-09 22:51:00,52.2,45.9,30.20,North,0,0.0,0.0,79,0.00,,,0.00,WUHU216HW,2013-03-10 03:51:00,
2013-03-09 22:56:00,52.2,45.9,30.20,North,0,0.0,0.0,79,0.00,,,0.00,WUHU216HW,2013-03-10 03:56:00,
2013-03-09 23:01:00,52.4,46.1,30.20,North,0,0.0,0.0,79,0.00,,,0.00,WUHU216HW,2013-03-10 04:01:00,
2013-03-09 23:06:00,52.2,45.9,30.19,North,0,0.0,0.0,79,0.00,,,0.00,WUHU216HW,2013-03-10 04:06:00,
2013-03-09 23:11:00,52.2,45.9,30.19,North,0,0.0,0.0,79,0.00,,,0.00,WUHU216HW,2013-03-10 04:11:00,
2013-03-09 23:16:00,52.2,45.9,30.19,North,0,0.0,0.0,79,0.00,,,0.00,WUHU216HW,2013-03-10 04:16:00,
2013-03-09 23:21:00,52.0,46.1,30.19,North,0,0.0,0.0,80,0.00,,,0.00,WUHU216HW,2013-03-10 04:21:00,
2013-03-09 23:26:00,51.7,46.0,30.19,North,0,0.0,0.0,81,0.00,,,0.00,WUHU216HW,2013-03-10 04:26:00,
2013-03-09 23:31:00,51.5,45.8,30.19,North,0,0.0,0.0,81,0.00,,,0.00,WUHU216HW,2013-03-10 04:31:00,
2013-03-09 23:36:00,51.5,45.8,30.18,North,0,0.0,0.0,81,0.00,,,0.00,WUHU216HW,2013-03-10 04:36:00,
2013-03-09 23:41:00,51.5,45.8,30.18,North,0,0.0,0.0,81,0.00,,,0.00,WUHU216HW,2013-03-10 04:41:00,
2013-03-09 23:46:00,51.5,45.5,30.17,North,0,0.0,0.0,80,0.00,,,0.00,WUHU216HW,2013-03-10 04:46:00,
2013-03-09 23:51:00,51.5,45.5,30.17,North,0,0.0,0.0,80,0.00,,,0.00,WUHU216HW,2013-03-10 04:51:00,
2013-03-09 23:56:00,51.3,45.6,30.17,North,0,0.0,0.0,81,0.00,,,0.00,WUHU216HW,2013-03-10 04:56:00,